User: anonymous   Login
Location: Unspecified
(0.0000°N, 0.0000°E)
Time: 06:53:02
(UTC+00:00)
Language:

STARLINK-30929 - Orbit

View from above orbital plane
View from above orbital plane
View from above satellite
View from above satellite

Ground track
Ground track

The orbit is defined by the following mean orbital elements,

1 58386U          26145.60704654 +.00000000 +00000-0 +37696-4 0 00008
2 58386  53.1606   3.1836 0001256  77.3028 282.8115 15.34389115    02
Epoch (UTC): 25 May 2026 14:34:08
Eccentricity: 0.0001256
inclination: 53.1606°
perigee height: 462 km
apogee height: 464 km
right ascension of ascending node: 3.1836°
argument of perigee: 77.3028°
revolutions per day: 15.34389115
mean anomaly at epoch: 282.8115°

The dashed part of the orbit path shows where the satellite is in the earth's shadow,  

DLR